sat.trackr.live / text

‹ back to catalog

STARLINK-2714

NORAD 48603 · 2021-041BC

PAYLOAD ACTIVE UNKNOWN

§ Identity

Operator
Country
US
Launch date
2021-05-15
Launch site
AFETR
Launch vehicle
Mass (kg)
RCS (m²)

Purposes: comms

External: N2YO · Heavens-Above · Gunter

§ Orbital elements

Epoch: 2026-09-12T04:52:40.094112Z

Period
94.01 min
Inclination
53.1611°
Eccentricity
0.0001177
Mean motion
15.31690225 rev/d
Perigee alt
470.0 km
Apogee alt
471.6 km
Semi-major
6,848.9 km
B*
6.2632e-5
RAAN
327.4853°
Arg perigee
77.0309°
Mean anomaly
283.0824°
Rev number
29,526

§ Raw data

STARLINK-27141 48603U 21041BC  26255.20324183  .00001578  00000+0  62632-4 0  99952 48603  53.1611 327.4853 0001177  77.0309 283.0824 15.31690225295269

JSON: /api/v1/satellites/48603 · /tle

For live sub-satellite position, see the globe view (requires WebGL).

§ Visibility from observer

Set your observer location to see the next 7 days of passes ≥ 10°. The values pass through the URL so the page stays shareable.

No JS? Fill the form by hand. The geolocation button needs JavaScript.